Regional Weather Roundup
Issued by NWS

Home | Current Version | Previous Version | Text Only | Print | Product List | Glossary On
Versions: 1 2 3 4 5 6 7 8 9 10 11 12 13 14 15 16 17 18 19 20 21 22 23 24 25 26 27 28 29 30 31 32 33 34 35 36 37 38 39 40 41 42 43 44 45 46 47 48 49 50
000
ASUS44 KFWD 071115
RWRTX
NORTH TEXAS HOURLY WEATHER ROUNDUP
NATIONAL WEATHER SERVICE FORT WORTH TX
500 AM CST SUN FEB 07 2016

NOTE: "FAIR" INDICATES FEW OR NO CLOUDS BELOW 12,000 FEET WITH NO
SIGNIFICANT WEATHER AND/OR OBSTRUCTIONS TO VISIBILITY.

TXZ118-119-071200-
DALLAS/FORT WORTH METROPLEX

CITY           SKY/WX    TMP DP  RH WIND       PRES   REMARKS
DFW AIRPORT    CLEAR     35  30  82 S8        30.22F WCI  29
DALLAS LOVE    CLEAR     37  33  85 SW3       30.24F
FTW MEACHAM    CLEAR     38  32  79 S6        30.22F WCI  33
DAL-EXECUTIVE  CLEAR     38  32  79 S6        30.22F WCI  33
FTW-ALLIANCE   CLEAR     36  32  85 CALM      30.21F
FTW-NAS-JRB    PTCLDY    37  32  82 S7        30.23F WCI  32
FTW-SPINKS     CLEAR     36  33  87 S9        30.23F WCI  29
ARLINGTON      PTCLDY    34  30  85 S5        30.23F WCI  30
GRAND PRAIRIE  CLEAR     35  32  88 S3        30.25S
MESQUITE       CLEAR     32  31  99 CALM      30.26S
LANCASTER      PTCLDY    35  31  85 CALM      30.26S
$$

TXZ091>094-102>105-117-120-121-131>134-071200-
NORTH CENTRAL TEXAS

CITY           SKY/WX    TMP DP  RH WIND       PRES   REMARKS
SHRMAN/DENISON CLEAR     37  33  84 SW6       30.23S WCI  32
GAINESVILLE    CLEAR     31  30  94 S3        30.23F FOG
BOWIE          CLEAR     32  31  96 SE5       30.19S WCI  27
BRIDGEPORT     CLEAR     37  34  88 S9        30.22F WCI  31
DECATUR        PTCLDY    37  32  81 S7        30.20F WCI  32
DENTON         PTCLDY    36  31  82 S5        30.22F WCI  32
MCKINNEY       PTCLDY    32  29  88 CALM      30.23F FOG
GREENVILLE     CLEAR     30  28  93 CALM      30.25F FOG
ROCKWALL       PTCLDY    34  33  95 SW6       30.23F WCI  29
TERRELL        PTCLDY    32  29  88 CALM      30.25F FOG
WAXAHACHIE     CLEAR     34  34  99 S7        30.25S WCI  28
CLEBURNE       PTCLDY    34  34 100 SW7       30.25S WCI  28
GRANBURY       PTCLDY    35  32  88 S6        30.24F WCI  30
$$

TXZ083>090-098>101-113>116-127>130-139>142-154-155-071200-
WESTERN NORTH TEXAS

CITY           SKY/WX    TMP DP  RH WIND       PRES   REMARKS
WICHITA FALLS  CLOUDY    30  25  81 S7        30.16F WCI  23
WF-KICKAPOO    CLOUDY    32  27  81 CALM      30.18F
VERNON         CLOUDY    32  21  62 SW8       30.15F WCI  25
ABILENE        CLEAR     39  17  41 S10       30.16F WCI  32
ABILENE-DYESS  CLEAR     40  19  43 S14       30.14F WCI  32
BRECKENRIDGE   CLEAR     40  27  59 S10       30.18F WCI  34
GRAHAM         PTCLDY    34  31  88 SE3       30.18F
MINERAL WELLS  CLEAR     30  28  92 S8        30.20F FOG     WCI  22
STEPHENVILLE   CLEAR     32  31  94 S3        30.25F
COMANCHE       CLOUDY    36  33  87 S7        30.22F WCI  31
BROWNWOOD      CLOUDY    32  27  80 MISG      30.22F
COLEMAN        CLOUDY    32  19  57 S5        30.20F WCI  27
$$

TXZ143>147-156>162-174-175-071200-
CENTRAL TEXAS

CITY           SKY/WX    TMP DP  RH WIND       PRES   REMARKS
WACO           CLEAR     32  31  96 SW9       30.26F FOG     WCI  24
WACO-MCGREGOR  CLEAR     28  27  96 SW6       30.27F FOG     WCI  22
HILLSBORO      CLEAR     33  31  93 S5        30.25F WCI  28
CORSICANA      CLEAR     34  31  88 SW7       30.27S WCI  28
MEXIA          CLEAR     33  32  98 S5        30.26S WCI  28
HEARNE         CLOUDY    28  27  99 CALM      30.31F FOG
CAMERON        CLOUDY    32  31  96 SW3       30.29S FOG
TEMPLE         CLOUDY    28  27  93 SW7       30.28F FOG     WCI  21
KILLEEN        CLOUDY    39  34  83 S12       30.25F WCI  32
KILLEEN-SKYLRK CLOUDY    30  29  96 CALM      30.27F
FORT HOOD      CLOUDY    34  32  92 S5        30.24F WCI  30
GATESVILLE     CLOUDY    30  30 100 CALM      30.28F FOG
HAMILTON       CLEAR     35  35 100 S9        30.24F WCI  28
LAMPASAS       CLOUDY    35  33  93 SW3       30.24F
$$

TXZ095>097-106>112-122>126-135>138-148>153-164>167-071200-
EAST TEXAS

CITY           SKY/WX    TMP DP  RH WIND       PRES   REMARKS
PARIS          PTCLDY    34  27  75 CALM      30.25S
SULPHUR SPRNGS CLEAR     37  35  92 CALM      30.28S
MOUNT PLEASANT CLEAR     32  32 100 SE5       30.28S WCI  27
GILMER         PTCLDY    32  31  98 CALM      30.27F
MINEOLA        CLEAR     30  30 100 CALM      30.26F FOG
TYLER          CLEAR     35  32  88 S3        30.26S
LONGVIEW       PTCLDY    30  29  96 S3        30.27F
MARSHALL       PTCLDY    30  28  93 CALM      30.30F
ATHENS         CLEAR     30  30 100 CALM      30.26S
PALESTINE      CLEAR     32  32 100 CALM      30.28F FOG
JACKSONVILLE   CLEAR     37  35  90 S5        30.27F WCI  34
HENDERSON      MOCLDY    29  29 100 CALM      30.28F
CENTER         FAIR      31  30  96 CALM      30.28S
NACOGDOCHES    PTCLDY    27  27 100 CALM      30.29F
LUFKIN         CLEAR     28  27  96 CALM      30.30S FOG
$$

SUPPLEMENTAL OBSERVATIONS (CENTRAL)

CITY           SKY/WX    TMP DP  RH WIND       PRES   REMARKS
LAKE TEXOMA      N/A     41  34  75 S2          N/A
CADDO GRASSLND   N/A     37  32  81 S6          N/A  WCI  33
PAT MAYSE LAKE   N/A     37  34  87 SE3         N/A
ATHENS           N/A     34  32  93 CALM        N/A
LAKE LIMESTONE   N/A     32  32 100 S2          N/A
MCGREGOR         N/A     28  28 100 SW3         N/A
TEMPLE           N/A     36  32  87 W3          N/A
$$

SUPPLEMENTAL OBSERVATIONS (WEST)

CITY           SKY/WX    TMP DP  RH WIND       PRES   REMARKS
MILLERS CREEK    N/A     34  27  75 SW8         N/A  WCI  27
POSSUM KINGDOM   N/A     37  27  65 S10         N/A  WCI  30
LBJ GRASSLAND    N/A     36  32  87 S7          N/A  WCI  30
GRANBURY         N/A     36  32  87 S7          N/A  WCI  30
COMANCHE         N/A     36  30  80 S8G17       N/A  WCI  29
HAMBY            N/A     37  18  44 S10         N/A  WCI  30
IVIE RESERVOIR   N/A     34  18  51 E1          N/A
COLORADO BEND    N/A     36  32  87 SW3G13      N/A
$$

SUPPLEMENTAL OBSERVATIONS (EAST)

CITY           SKY/WX    TMP DP  RH WIND       PRES   REMARKS
CLARKSVILLE      N/A     32  30  93 S2          N/A
TEXARKANA        N/A     28  27  93 CALM        N/A
LINDEN           N/A     32  28  86 CALM        N/A
CADDO LAKE       N/A     28  25  86 CALM        N/A
GILMER           N/A     32  30  93 W1          N/A
HENDERSON        N/A     30  30 100 CALM        N/A
S SABINE NF      N/A     32  30  93 SW1         N/A
$$

SUPPLEMENTAL OBSERVATIONS ARE A COLLECTION OF AUTOMATED INSTRUMENTS
THAT ARE MAINTAINED BY A VARIETY OF FEDERAL AND STATE AGENCIES.
CERTAIN ELEMENTS...SUCH AS HUMIDITY VALUES AND SUSTAINED WIND
SPEEDS...MAY BE APPROXIMATED.




USA.gov is the U.S. government's official web portal to all federal, state and local government web resources and services.